RLU250 UUDL-ULLI

Flight info

Callsign RLU250
Flight time 1h 9m
Altitude 30000
Route N0420F300 MAGOK T617 GOBOM T747 BIKBA T785 NEMKI P979 BEPOL
Aircraft CRJ1/M-J/L

Departure

Time 2026-04-25 20:01
Airport Golden Ring Yaroslavl International Airport (UUDL)

Arrival

Time 2026-04-25 21:10
Airport Pulkovo Airport (ULLI)
Time Latitude Longitude Altitude Speed Heading
2026-04-25 19:42 57.56378 40.17640 311 ft 0 kts 18°
2026-04-25 19:59 57.56379 40.17641 311 ft 2 kts 18°
2026-04-25 19:59 57.56414 40.17657 311 ft 8 kts 12°
2026-04-25 20:00 57.56492 40.17653 310 ft 15 kts 339°
2026-04-25 20:00 57.56551 40.17593 309 ft 8 kts 297°
2026-04-25 20:00 57.56443 40.17146 312 ft 78 kts 243°
2026-04-25 20:00 57.56082 40.15804 317 ft 150 kts 243°
2026-04-25 20:01 57.55608 40.11393 1467 ft 199 kts 272°
2026-04-25 20:01 57.56119 40.08916 2157 ft 218 kts 313°
2026-04-25 20:01 57.57462 40.07549 3035 ft 226 kts 341°
2026-04-25 20:02 57.58985 40.06706 4000 ft 230 kts 345°
2026-04-25 20:02 57.60545 40.05948 4944 ft 233 kts 345°
2026-04-25 20:02 57.62130 40.05169 5863 ft 237 kts 344°
2026-04-25 20:02 57.63702 40.04284 6728 ft 240 kts 342°
2026-04-25 20:03 57.65304 40.03295 7587 ft 243 kts 341°
2026-04-25 20:03 57.66921 40.02273 8419 ft 246 kts 341°
2026-04-25 20:03 57.68542 40.01272 9213 ft 249 kts 341°
2026-04-25 20:03 57.70196 40.00259 9993 ft 252 kts 341°
2026-04-25 20:04 57.71879 39.99230 10752 ft 256 kts 341°
2026-04-25 20:04 57.73586 39.98185 11499 ft 259 kts 341°
2026-04-25 20:04 57.75312 39.97127 12228 ft 262 kts 341°
2026-04-25 20:04 57.77030 39.96073 12930 ft 265 kts 341°
2026-04-25 20:05 57.78797 39.94987 13621 ft 268 kts 341°
2026-04-25 20:05 57.80580 39.93890 14300 ft 270 kts 341°
2026-04-25 20:05 57.82375 39.92785 14958 ft 273 kts 341°
2026-04-25 20:05 57.84195 39.91664 15602 ft 276 kts 341°
2026-04-25 20:06 57.86009 39.90544 16223 ft 279 kts 341°
2026-04-25 20:06 57.87865 39.89397 16836 ft 282 kts 341°
2026-04-25 20:06 57.89746 39.88234 17435 ft 284 kts 341°
2026-04-25 20:06 57.91640 39.87061 18004 ft 287 kts 341°
2026-04-25 20:07 57.93525 39.85892 18584 ft 290 kts 341°
2026-04-25 20:07 57.95455 39.84694 19139 ft 292 kts 341°
2026-04-25 20:07 57.97403 39.83484 19683 ft 295 kts 341°
2026-04-25 20:07 57.99335 39.82282 20203 ft 298 kts 341°
2026-04-25 20:08 58.01315 39.81053 20719 ft 300 kts 341°
2026-04-25 20:08 58.03316 39.79813 21221 ft 303 kts 341°
2026-04-25 20:08 58.05333 39.78721 21697 ft 305 kts 347°
2026-04-25 20:08 58.07438 39.78070 22175 ft 308 kts 353°
2026-04-25 20:09 58.09586 39.77641 22638 ft 310 kts 354°
2026-04-25 20:09 58.11719 39.77200 23083 ft 312 kts 352°
2026-04-25 20:09 58.13884 39.76641 23518 ft 315 kts 351°
2026-04-25 20:09 58.16067 39.76024 23946 ft 317 kts 351°
2026-04-25 20:10 58.18268 39.75431 24372 ft 319 kts 352°
2026-04-25 20:10 58.20452 39.74843 24773 ft 321 kts 351°
2026-04-25 20:10 58.22683 39.74242 25170 ft 323 kts 351°
2026-04-25 20:10 58.24898 39.73645 25558 ft 325 kts 351°
2026-04-25 20:11 58.27156 39.73035 25925 ft 328 kts 351°
2026-04-25 20:11 58.29421 39.72422 26290 ft 329 kts 351°
2026-04-25 20:11 58.31711 39.71805 26647 ft 332 kts 352°
2026-04-25 20:11 58.33981 39.71181 26987 ft 333 kts 350°
2026-04-25 20:12 58.36277 39.70382 27324 ft 335 kts 348°
2026-04-25 20:12 58.38567 39.69444 27653 ft 337 kts 347°
2026-04-25 20:12 58.40859 39.68504 27969 ft 339 kts 348°
2026-04-25 20:12 58.41638 39.68190 28076 ft 340 kts 347°
2026-04-25 20:13 58.45489 39.66683 28583 ft 343 kts 348°
2026-04-25 20:13 58.47837 39.65785 28881 ft 344 kts 348°
2026-04-25 20:13 58.50195 39.64885 29170 ft 346 kts 348°
2026-04-25 20:13 58.52543 39.63985 29446 ft 348 kts 348°
2026-04-25 20:14 58.54929 39.63069 29720 ft 349 kts 348°
2026-04-25 20:14 58.57330 39.62142 29878 ft 355 kts 348°
2026-04-25 20:14 58.62261 39.60238 29985 ft 369 kts 348°
2026-04-25 20:15 58.67354 39.58269 30008 ft 379 kts 348°
2026-04-25 20:15 58.72593 39.56217 30014 ft 388 kts 348°
2026-04-25 20:16 58.77802 39.53278 30004 ft 395 kts 326°
2026-04-25 20:16 58.79808 39.49728 30015 ft 398 kts 307°
2026-04-25 20:16 58.81236 39.45117 30036 ft 402 kts 296°
2026-04-25 20:17 58.83451 39.35138 30025 ft 410 kts 290°
2026-04-25 20:17 58.84236 39.29821 30007 ft 413 kts 277°
2026-04-25 20:17 58.84231 39.24321 30016 ft 416 kts 264°
2026-04-25 20:18 58.83645 39.13076 30012 ft 424 kts 265°
2026-04-25 20:18 58.83412 39.01615 30002 ft 430 kts 269°
2026-04-25 20:19 58.83370 38.90049 29999 ft 435 kts 269°
2026-04-25 20:19 58.83265 38.78340 29998 ft 440 kts 269°
2026-04-25 20:20 58.84192 38.66735 29992 ft 444 kts 296°
2026-04-25 20:20 58.87751 38.56919 30018 ft 447 kts 310°
2026-04-25 20:21 58.92225 38.48612 30002 ft 450 kts 325°
2026-04-25 20:21 58.97569 38.42300 30000 ft 453 kts 328°
2026-04-25 20:22 59.01116 38.37811 29999 ft 455 kts 325°
2026-04-25 20:22 59.08045 38.28470 29995 ft 458 kts 325°
2026-04-25 20:23 59.13322 38.21410 29995 ft 460 kts 325°
2026-04-25 20:23 59.18584 38.14339 29994 ft 461 kts 325°
2026-04-25 20:24 59.23883 38.07184 29994 ft 463 kts 325°
2026-04-25 20:24 59.29125 37.99923 29994 ft 464 kts 323°
2026-04-25 20:25 59.34234 37.92232 29995 ft 465 kts 322°
2026-04-25 20:25 59.39380 37.84524 29995 ft 466 kts 322°
2026-04-25 20:26 59.44545 37.76768 29995 ft 466 kts 322°
2026-04-25 20:26 59.49667 37.69034 29995 ft 467 kts 322°
2026-04-25 20:27 59.54811 37.61225 29995 ft 467 kts 322°
2026-04-25 20:27 59.59971 37.53367 29996 ft 468 kts 322°
2026-04-25 20:28 59.65119 37.45465 29996 ft 469 kts 322°
2026-04-25 20:28 59.70264 37.37589 29996 ft 469 kts 322°
2026-04-25 20:29 59.75402 37.29690 29996 ft 469 kts 322°
2026-04-25 20:29 59.80583 37.21677 29997 ft 470 kts 321°
2026-04-25 20:30 59.85688 37.13726 29997 ft 470 kts 322°
2026-04-25 20:30 59.90851 37.05679 29997 ft 470 kts 322°
2026-04-25 20:31 59.95984 36.97653 29997 ft 470 kts 321°
2026-04-25 20:31 60.01131 36.89565 29998 ft 470 kts 321°
2026-04-25 20:32 60.06263 36.81461 29997 ft 470 kts 321°
2026-04-25 20:32 60.10764 36.72339 29997 ft 469 kts 303°
2026-04-25 20:33 60.13986 36.60896 30003 ft 469 kts 294°
2026-04-25 20:33 60.15645 36.52939 30001 ft 469 kts 292°
2026-04-25 20:34 60.19047 36.36872 29999 ft 469 kts 294°
2026-04-25 20:34 60.21677 36.24827 29997 ft 469 kts 294°
2026-04-25 20:35 60.24275 36.12842 29998 ft 470 kts 293°
2026-04-25 20:35 60.26891 36.00729 29997 ft 470 kts 293°
2026-04-25 20:36 60.28989 35.90958 29997 ft 468 kts 293°
2026-04-25 20:36 60.31556 35.78940 29995 ft 462 kts 293°
2026-04-25 20:37 60.34054 35.67167 29994 ft 457 kts 293°
2026-04-25 20:37 60.36537 35.55398 29995 ft 452 kts 292°
2026-04-25 20:38 60.38984 35.43750 29995 ft 449 kts 292°
2026-04-25 20:38 60.41395 35.32203 29997 ft 446 kts 292°
2026-04-25 20:39 60.43230 35.23244 29993 ft 444 kts 289°
2026-04-25 20:39 60.43822 35.17138 29993 ft 442 kts 272°
2026-04-25 20:39 60.43839 35.15118 30003 ft 441 kts 270°
2026-04-25 20:40 60.43160 34.98698 30010 ft 438 kts 257°
2026-04-25 20:40 60.41523 34.86894 30001 ft 436 kts 253°
2026-04-25 20:41 60.39929 34.75052 29999 ft 435 kts 256°
2026-04-25 20:41 60.38124 34.63406 29993 ft 434 kts 240°
2026-04-25 20:42 60.36287 34.58691 30008 ft 433 kts 222°
2026-04-25 20:42 60.33927 34.54921 30017 ft 432 kts 216°
2026-04-25 20:42 60.28984 34.48043 30006 ft 433 kts 214°
2026-04-25 20:43 60.23942 34.41348 30001 ft 434 kts 213°
2026-04-25 20:43 60.18881 34.34716 29999 ft 435 kts 213°
2026-04-25 20:44 60.14640 34.29182 29998 ft 435 kts 213°
2026-04-25 20:44 60.09563 34.22581 29999 ft 436 kts 213°
2026-04-25 20:45 60.04485 34.15997 29998 ft 436 kts 213°
2026-04-25 20:45 60.02127 34.12186 29990 ft 435 kts 228°
2026-04-25 20:45 60.00390 34.07239 30009 ft 434 kts 239°
2026-04-25 20:46 59.97498 33.96690 30018 ft 435 kts 242°
2026-04-25 20:46 59.94713 33.85946 30001 ft 435 kts 243°
2026-04-25 20:47 59.91960 33.75213 29998 ft 435 kts 243°
2026-04-25 20:47 59.89215 33.64513 29999 ft 436 kts 243°
2026-04-25 20:48 59.86440 33.53719 29998 ft 436 kts 243°
2026-04-25 20:48 59.83686 33.43040 29998 ft 436 kts 243°
2026-04-25 20:49 59.80906 33.32285 29999 ft 436 kts 243°
2026-04-25 20:49 59.79596 33.26834 29853 ft 438 kts 251°
2026-04-25 20:49 59.78895 33.21059 29466 ft 433 kts 260°
2026-04-25 20:50 59.78414 33.15171 29072 ft 429 kts 262°
2026-04-25 20:50 59.77996 33.09313 28671 ft 426 kts 262°
2026-04-25 20:50 59.77610 33.03564 28286 ft 423 kts 263°
2026-04-25 20:50 59.77233 32.97769 27874 ft 421 kts 263°
2026-04-25 20:51 59.76865 32.92012 27472 ft 418 kts 263°
2026-04-25 20:51 59.76504 32.86357 27076 ft 417 kts 263°
2026-04-25 20:51 59.76145 32.80718 26672 ft 405 kts 263°
2026-04-25 20:51 59.75794 32.75238 26267 ft 395 kts 263°
2026-04-25 20:52 59.75452 32.69888 25857 ft 386 kts 263°
2026-04-25 20:52 59.75249 32.66405 25587 ft 381 kts 264°
2026-04-25 20:52 59.74989 32.59426 24959 ft 376 kts 266°
2026-04-25 20:52 59.74844 32.54348 24460 ft 371 kts 266°
2026-04-25 20:53 59.74685 32.49250 23947 ft 368 kts 266°
2026-04-25 20:53 59.74487 32.44210 23453 ft 364 kts 265°
2026-04-25 20:53 59.74282 32.39198 22949 ft 361 kts 265°
2026-04-25 20:53 59.74076 32.34277 22451 ft 359 kts 265°
2026-04-25 20:54 59.73867 32.29347 21948 ft 356 kts 265°
2026-04-25 20:54 59.73661 32.24515 21454 ft 354 kts 265°
2026-04-25 20:54 59.73452 32.19646 20953 ft 352 kts 265°
2026-04-25 20:54 59.73242 32.14813 20453 ft 351 kts 265°
2026-04-25 20:55 59.73031 32.10044 19943 ft 342 kts 265°
2026-04-25 20:55 59.72827 32.05408 19429 ft 332 kts 265°
2026-04-25 20:55 59.72626 32.00940 18924 ft 324 kts 265°
2026-04-25 20:55 59.72429 31.96530 18409 ft 317 kts 265°
2026-04-25 20:56 59.72236 31.92252 17904 ft 311 kts 265°
2026-04-25 20:56 59.72037 31.87990 17397 ft 307 kts 264°
2026-04-25 20:56 59.71834 31.83800 16891 ft 303 kts 264°
2026-04-25 20:56 59.71643 31.79701 16391 ft 299 kts 265°
2026-04-25 20:57 59.71452 31.75586 15889 ft 301 kts 265°
2026-04-25 20:57 59.71261 31.71416 15400 ft 306 kts 265°
2026-04-25 20:57 59.71069 31.67235 14924 ft 310 kts 265°
2026-04-25 20:57 59.70867 31.62945 14431 ft 312 kts 264°
2026-04-25 20:58 59.70663 31.58636 13935 ft 312 kts 264°
2026-04-25 20:58 59.70462 31.54452 13433 ft 304 kts 264°
2026-04-25 20:58 59.70260 31.50315 12924 ft 298 kts 264°
2026-04-25 20:58 59.70064 31.46266 12417 ft 292 kts 264°
2026-04-25 20:59 59.69869 31.42328 11915 ft 288 kts 264°
2026-04-25 20:59 59.69674 31.38401 11409 ft 284 kts 264°
2026-04-25 20:59 59.69483 31.34533 10904 ft 280 kts 264°
2026-04-25 20:59 59.69292 31.30721 10400 ft 276 kts 264°
2026-04-25 21:00 59.69092 31.26994 9902 ft 273 kts 264°
2026-04-25 21:00 59.68963 31.24514 9568 ft 271 kts 264°
2026-04-25 21:00 59.68960 31.15954 8444 ft 265 kts 282°
2026-04-25 21:01 59.69393 31.12402 8081 ft 266 kts 284°
2026-04-25 21:01 59.69836 31.08885 7733 ft 264 kts 283°
2026-04-25 21:01 59.70225 31.05331 7403 ft 262 kts 281°
2026-04-25 21:01 59.70558 31.01790 7083 ft 259 kts 280°
2026-04-25 21:02 59.70861 30.98533 6777 ft 257 kts 281°
2026-04-25 21:02 59.71200 30.94998 6445 ft 254 kts 281°
2026-04-25 21:02 59.71526 30.91599 6119 ft 252 kts 281°
2026-04-25 21:02 59.71851 30.88208 5790 ft 249 kts 281°
2026-04-25 21:03 59.72172 30.84849 5462 ft 247 kts 281°
2026-04-25 21:03 59.72490 30.81497 5135 ft 245 kts 281°
2026-04-25 21:03 59.72798 30.78240 4792 ft 235 kts 280°
2026-04-25 21:03 59.73093 30.75111 4452 ft 227 kts 280°
2026-04-25 21:04 59.73375 30.72118 4116 ft 221 kts 280°
2026-04-25 21:04 59.73653 30.69151 3786 ft 215 kts 280°
2026-04-25 21:04 59.73923 30.66267 3464 ft 209 kts 280°
2026-04-25 21:04 59.74178 30.63538 3300 ft 197 kts 280°
2026-04-25 21:05 59.74417 30.60965 3220 ft 182 kts 280°
2026-04-25 21:05 59.74642 30.58535 3192 ft 175 kts 280°
2026-04-25 21:05 59.74897 30.56199 3054 ft 173 kts 284°
2026-04-25 21:05 59.75219 30.53963 2852 ft 166 kts 286°
2026-04-25 21:06 59.75546 30.51792 2610 ft 157 kts 287°
2026-04-25 21:06 59.75839 30.49841 2372 ft 139 kts 286°
2026-04-25 21:06 59.76099 30.48108 2138 ft 126 kts 286°
2026-04-25 21:06 59.76261 30.47017 2005 ft 123 kts 286°
2026-04-25 21:07 59.76576 30.44882 1785 ft 116 kts 286°
2026-04-25 21:07 59.76801 30.43362 1651 ft 117 kts 286°
2026-04-25 21:07 59.77037 30.41752 1542 ft 125 kts 286°
2026-04-25 21:07 59.77295 30.39998 1429 ft 140 kts 286°
2026-04-25 21:08 59.77565 30.38175 1257 ft 133 kts 286°
2026-04-25 21:08 59.77820 30.36454 1039 ft 128 kts 286°
2026-04-25 21:08 59.78072 30.34766 835 ft 127 kts 286°
2026-04-25 21:08 59.78323 30.33077 666 ft 128 kts 286°
2026-04-25 21:09 59.78833 30.29652 334 ft 133 kts 286°
2026-04-25 21:09 59.79085 30.27943 105 ft 125 kts 285°
2026-04-25 21:09 59.79301 30.26501 81 ft 88 kts 286°
2026-04-25 21:10 59.79433 30.25592 84 ft 58 kts 285°
2026-04-25 21:10 59.79539 30.24852 85 ft 53 kts 285°
2026-04-25 21:10 59.79638 30.24173 83 ft 50 kts 286°
2026-04-25 21:10 59.79739 30.23530 83 ft 49 kts 289°
2026-04-25 21:11 59.79918 30.23042 82 ft 25 kts 328°
2026-04-25 21:11 59.79983 30.23151 83 ft 14 kts 108°
2026-04-25 21:11 59.79949 30.23351 83 ft 16 kts 108°
2026-04-25 21:11 59.79913 30.23576 84 ft 18 kts 107°
2026-04-25 21:12 59.79873 30.23829 82 ft 20 kts 104°
2026-04-25 21:12 59.79835 30.24109 83 ft 22 kts 104°
2026-04-25 21:12 59.79801 30.24408 85 ft 22 kts 106°
2026-04-25 21:12 59.79764 30.24605 85 ft 23 kts 110°
2026-04-25 21:13 59.79693 30.25036 83 ft 26 kts 108°
2026-04-25 21:13 59.79637 30.25383 83 ft 27 kts 108°
2026-04-25 21:13 59.79578 30.25750 83 ft 28 kts 108°
2026-04-25 21:13 59.79541 30.26018 84 ft 16 kts 103°
2026-04-25 21:14 59.79538 30.26236 82 ft 15 kts 39°
2026-04-25 21:14 59.79639 30.26308 86 ft 13 kts 14°
2026-04-25 21:14 59.79689 30.26229 83 ft 8 kts 285°
2026-04-25 21:14 59.79690 30.26223 82 ft 0 kts 285°